Showing default

TIANHUI 2-01A, 44207

Orbit data source: Space-Track

TIANHUI 2-01A, 44207 is a payload satellite owned by G. Cehui dili (CN) in SSO that was launched on Mon, 29 Apr 2019 UTC via a CHANG ZHENG 4B launch vehicle from the Taiyaun Space Center, China (TSC). Payload-class satellites include a variety of spacecraft equipped with specific instruments for various scientific and technological missions. These include communications satellites like Starlink; space stations such as the ISS; scientific satellites like the Hubble; Earth observation satellites from companies like Planet Labs, Umbra, and HawkEye 360; GPS; miniature CubeSats for education and research; and military/defense satellites.

Loading next visibility...
Identifier
44207, 2019-024A
Orbit
SSO
Country
Flag of CNCN / PRC
Related business
Manufacturer
SAST
Mission
Operational Civil Radar Imaging
Bus & Motor
CAST-2000?, Unknown motor
Mass
~1,000 kg wet, ~1,000 kg dry
Launch date (UTC)
2019-04-29 (7 years ago)
Launch vehicle
CHANG ZHENG 4B
Launch site
Taiyaun Space Center, China (TSC)
Object type
Payload
Rocket body
Debris
Shape & HBR
Box + 2 Pan, 1.5 m
Radar Cross Section
2.045 m², Large (>1 m²)

Expand to show TLE details & history
Last TLE update: 1 day ago

TLE from 1 day ago
0 TIANHUI 2-01A
1 44207U 19024A   25308.39162147  .00002267  00000-0  11879-3 0  9990
2 44207  97.4787 310.3609 0001569 107.4270 252.7135 15.16801792 68060
Epoch: 2025-11-04T09:23Z
TLE epoch observation values (Epoch: 2025-11-04T09:23:56.095Z)
Latitude
0.00003°
Longitude
125.49786°
Altitude
518.919 km
Speed
7.604 km/s
True Right ascension
20h 41m 26s
True Declination
0° 00' 00"
Sunlit
Object was in daylight at epoch
Visualization orbit readout
Latitude
Unknown
Longitude
Unknown
Altitude
Unknown
Speed
Unknown
Apparent Right ascension
Unknown
Apparent Declination
Unknown
Sunlit
N/A
Visualization observer readout
Local Sidereal Time
15:03:29
Azimuth
Unknown
Elevation
Unknown
Doppler factor
Unknown
Orbital elements
Apogee altitude
513.568 km
Perigee altitude
511.406 km
Semi-major axis
6,890.624 km
Eccentricity
0.00016
Inclination
97.4787°
RAAN
310.3609°
Arg. of periapsis
107.427°
True anomaly
252.69633°
Mean anomaly
252.7135°
Eccentric anomaly
252.70492°
Mean motion
3.79451 °/min
Orbital period
94.87 mins
BSTAR
0.00011879
Loading maneuver chart data...
Computing Atmospheric mass density...
Loading historical data...
Loading historical data...
Loading historical data...
Loading historical data...
Loading historical data...
Loading historical data...
Loading historical data...

Documentation

Showing up to 5 results
|